Lawrence, KS

12:53 PM CDT on July 22, 2017 (GMT -0500)
Lawrence Municipal

Weather History for KLWC - May, 2014

Change the Weather History Date:

Wednesday, May 14, 2014

  Actual Average Record
Temperature  
Mean Temperature 56 °F 64 °F  
Max Temperature 67 °F 76 °F 95 °F (2013)
Min Temperature 45 °F 52 °F 39 °F (2000)
Degree Days  
Heating Degree Days 9 4  
Month to date heating degree days 59 69  
Since 1 July heating degree days 5580 5048  
Cooling Degree Days 0 3  
Month to date cooling degree days 54 24  
Year to date cooling degree days 64 47  
Growing Degree Days 4 (Base 50)    
Moisture  
Dew Point 40 °F    
Average Humidity 62    
Maximum Humidity 92    
Minimum Humidity 31    
Precipitation  
Precipitation T in 0.14 in 0.65 in (2004)
Month to date precipitation 1.09 2.21  
Year to date precipitation 6.68 10.91  
Sea Level Pressure  
Sea Level Pressure 30.22 in    
Wind  
Wind Speed 7 mph (North)    
Max Wind Speed 14 mph    
Max Gust Speed 19 mph    
Visibility 10 miles    
Events Rain    
T = Trace of Precipitation, MM = Missing Value Source: NWS Daily Summary

Daily Weather History Graph

Daily Weather History Graph

Search for Another Location

Airport or City:

Trip Planner

Search our weather history database for the weather conditions in past years. The results will help you decide how hot, cold, wet, or windy it might be!

Date:

Astronomy

May. 14, 2014 Rise Set
Actual Time 6:08 AM CDT 8:26 PM CDT
Civil Twilight 5:39 AM CDT 8:56 PM CDT
Nautical Twilight 5:02 AM CDT 9:33 PM CDT
Astronomical Twilight 4:21 AM CDT 10:13 PM CDT
Moon 8:32 PM CDT (5/14) 6:07 AM CDT (5/14)
Length of Visible Light 15h 17m
Length of Day
14h 17m
Full, 100% of the Moon is Illuminated
May 14
Full
May 14
Full
May 21
Last Quarter
May 28
New
Jun 5
First Quarter

Hourly Weather History & Observations

Time (CDT) Temp. Windchill Dew Point Humidity Pressure Visibility Wind Dir Wind Speed Gust Speed Precip Events Conditions
12:52 AM 45.0 °F 41.2 °F 41.0 °F 86% 30.28 in 10.0 mi NW 6.9 mph - N/A   Clear
1:52 AM 46.0 °F 43.9 °F 42.1 °F 86% 30.29 in 10.0 mi NW 4.6 mph - N/A   Clear
2:52 AM 46.0 °F 42.5 °F 42.1 °F 86% 30.27 in 10.0 mi NNW 6.9 mph - N/A   Clear
3:52 AM 46.0 °F 43.1 °F 42.1 °F 86% 30.28 in 10.0 mi North 5.8 mph - N/A   Clear
4:52 AM 46.0 °F 43.1 °F 42.1 °F 86% 30.27 in 10.0 mi NNW 5.8 mph - N/A   Clear
5:52 AM 45.0 °F 40.6 °F 42.1 °F 90% 30.26 in 10.0 mi NNW 8.1 mph - N/A   Clear
6:52 AM 46.0 °F 43.1 °F 42.1 °F 86% 30.28 in 10.0 mi NW 5.8 mph - N/A   Clear
7:52 AM 46.9 °F - 43.0 °F 86% 30.29 in 10.0 mi NW 6.9 mph - N/A   Clear
8:52 AM 50.0 °F - 43.0 °F 77% 30.28 in 10.0 mi NW 10.4 mph - N/A   Clear
10:52 AM 59.0 °F - 41.0 °F 51% 30.27 in 10.0 mi North 9.2 mph - N/A   Clear
11:52 AM 61.0 °F - 37.0 °F 41% 30.27 in 10.0 mi North 9.2 mph - N/A   Clear
12:52 PM 62.1 °F - 37.0 °F 39% 30.25 in 10.0 mi North 10.4 mph - N/A   Clear
1:52 PM 63.0 °F - 34.0 °F 34% 30.24 in 10.0 mi ENE 8.1 mph - N/A   Clear
2:52 PM 64.9 °F - 34.0 °F 32% 30.21 in 10.0 mi NNE 11.5 mph 18.4 mph N/A   Clear
4:52 PM 64.9 °F - 36.0 °F 34% 30.15 in 10.0 mi Calm Calm - N/A   Clear
5:52 PM 64.9 °F - 33.1 °F 31% 30.13 in 10.0 mi Calm Calm - N/A   Clear
6:52 PM 63.0 °F - 39.0 °F 41% 30.12 in 10.0 mi SSE 11.5 mph - N/A   Clear
7:52 PM 60.1 °F - 39.9 °F 47% 30.13 in 10.0 mi SE 9.2 mph - N/A   Clear
8:52 PM 55.9 °F - 42.1 °F 60% 30.13 in 10.0 mi ESE 5.8 mph - N/A   Mostly Cloudy
10:52 PM 55.0 °F - 45.0 °F 69% 30.15 in 10.0 mi South 5.8 mph - N/A   Overcast
11:52 PM 55.0 °F - 43.0 °F 64% 30.12 in 10.0 mi SSE 9.2 mph - 0.00 in Rain Light Rain